Время (UTC), дата Ветер
(°,м/с) 
Видим.   Явления Облачность Т
(°С)
Тd
(°С)
f(%) Тe
(°С)
Pmin
(гПа)
dP
(гПа)
Po
(мм)
O2
(г/м3)
Тmin Tmax R s Состояние
почвы
00 01.09.14 090 (В) 20000 м    ясно 
+16.8 +11.6 71 +21  1014.3  -0.6  722  272           
03 01.09.14 100 (В) 20000 м    ясно 
+15.7 +11.2 75 +19  1015  0.4  722  273  +15.2        сухая 
06 01.09.14 110 (В) 11-16{16}  20000 м    3/3 600 м 
[Cu hum]
+22.9 +12.6 52 +29  1014.5  0.8  723  266           
09 01.09.14 110 (В) 10-15{18}  20000 м    9/9 900 м 
[Cu hum]
+24.1 +11.8 46 +29  1014.1  -0.2  722  265           
12 01.09.14 110 (В) 11-17{17}  20000 м    8/8 1050 м 
[Cu hum]
+26.1 +11.6 40 +30  1012.7  -1  722  263           
15 01.09.14 100 (В) 9-14  20000 м    4/0 средняя 
[Ac trans]
+24.3 +10 40 +26  1012.2  -1  721  265    +26.8       
18 01.09.14 090 (В) 10-14{14}  20000 м    4/0 средняя 
[Ac trans]
+21.4 +7.5 41 +21  1013  0.3  721  268           
21 01.09.14 100 (В) 9-12{15}  20000 м    3/0 средняя 
[Ac trans]
+19.1 +10.1 56 +21  1013  -0.4  721  270           
00 02.09.14 100 (В) 8-12{13}  20000 м    ясно 
+17.9 +11.4 66 +22  1013  -0.2  721  270           
03 02.09.14 090 (В) 20000 м    4/3 1000 м средняя 
[Sc|Ac trans]
+16.2 +12.9 81 +21  1013.4  -0.1  721  272  +16.1        сухая 
06 02.09.14 110 (В) 11-15{16}  20000 м    6/4 1000 м средняя 
[Sc|Ac trans]
+21.8 +13.7 60 +29  1012.9  0.5  721  266           
09 02.09.14 100 (В) 12-15{18}  20000 м    6/6 600 м 
[Cu hum]
+26.1 +10.8 38 +29  1011.5  -0.7  721  263           
12 02.09.14 110 (В) 11-15  20000 м    6/6 1000 м верхняя 
[Cu hum|Ci fib]
+27.8 +11.5 36 +32  1010.7  -0.5  720  261          замёрзшая 
15 02.09.14 100 (В) 10-13  20000 м    6/6 1000 м 
[Cu hum]
+26.1 +12.2 42 +31  1010.7  -0.2  720  263    +29       
18 02.09.14 090 (В) 9-12{14}  20000 м    3/0 средняя 
[Ac trans]
+22.6 +14.3 59 +31  1012.5  1.2  721  265           
21 02.09.14 100 (В) 8-10{14}  20000 м    1/0 средняя 
[Ac trans]
+19.1 +13 68 +25  1013.1  721  269           
00 03.09.14 090 (В) 7{11}  20000 м    6/3 1000 м средняя 
[Sc|Ac trans]
+18.8 +14.1 74 +27  1013  0.1  721  269           
03 03.09.14 100 (В) 20000 м    9/8 300 м средняя 
[Sc|Ac trans]
+18.6 +15 80 +29  1013.3  0.2  721  269  +18.4        сухая 
06 03.09.14 110 (В) 8-11{12}  20000 м    8/8 570 м 
[Sc]
+21.7 +15.8 69 +33  1012.9  0.2  721  266           
09 03.09.14 100 (В) 9-13{16}  20000 м    5/5 1000 м 
[Cu hum]
+27.1 +14.1 45 +35  1011.1  -0.8  721  261           
12 03.09.14 100 (В) 10-16{17}  20000 м    5/5 1000 м 
[Cu hum]
+28.4 +13.4 40 +35  1010.2  -0.7  720  260           
15 03.09.14 110 (В) 6{17}  20000 м    3/0 средняя 
[Ac trans]
+28.2 +11.5 35 +32  1009.1  -1.1  719  261    +29.2       
18 03.09.14 090 (В) 8-11{12}  20000 м    3/0 средняя 
[Ac trans]
+24.7 +11.1 42 +28  1010.7  0.9  720  264           
21 03.09.14 080 (В) 6{13}  20000 м    4/0 средняя 
[Ac trans]
+20.7 +12.7 60 +27  1011  -0.3  720  267           
00 04.09.14 090 (В) 20000 м    ясно 
+18.1 +15.4 84 +29  1011.1  -0.3  720  269           
03 04.09.14 080 (В) 20000 м    5/3 600 м кучево-дожд., средняя 
[Cb calv|Ac trans]
+17.3 +15.4 89 +28  1011.3  720  269  +16.8        сухая 
06 04.09.14 080 (В) 20000 м    8/4 300 м средняя 
[St|Ac trans]
+21.9 +15.9 69 +33  1011.1  0.7  720  265           
09 04.09.14 080 (В) 5{11}  20000 м    9/5 600 м кучево-дожд., средняя 
[Cb calv|Ac trans]
+26.5 +10.5 37 +29  1011.2  0.7  721  263           
12 04.09.14 050 (СВ) 8-11{12}  20000 м    9/3 600 м кучево-дожд., средняя, верхняя 
[Cb calv|Ac trans|Ci fib]
+27.9 +3.1 20 +28  1009.9  -1.1  720  263           
15 04.09.14 110 (В) 4{12}  20000 м    9/3 1000 м средняя, верхняя 
[Sc diur, vesp|Ac trans|Ci fib]
+26.7 +4.9 25 +27  1009.8  -0.3  720  263    +28.8       
18 04.09.14 050 (СВ) 20000 м    6/0 средняя 
[Ac trans]
+22.6 +1.6 25 +23  1010.9  0.3  720  268           
21 04.09.14 040 (СВ) 20000 м    3/0 средняя 
[Ac trans]
+20.2 +3 32 +20  1011.5  0.2  720  270           
00 05.09.14 050 (СВ) 20000 м    3/0 средняя 
[Ac trans]
+17.6 +13.1 75 +25  1012.1  0.2  720  270           
03 05.09.14 050 (СВ) 20000 м    8/3 600 м средняя 
[Sc|Ac trans]
+17.5 +11.7 69 +22  1013.3  1.1  721  271  +17.3        сухая 
06 05.09.14 060 (СВ) 20000 м    5/1 1000 м кучево-дожд., средняя 
[Cb calv|Ac trans]
+21.2 +7.9 42 +21  1013  0.3  721  268  +16.6         
09 05.09.14 060 (СВ) 7-11{11}  20000 м    3/3 600 м 
[Cu hum]
+24.8 +10.4 40 +27  1012.4  0.1  721  265           
12 05.09.14 060 (СВ) 8-12{13}  20000 м    8/8 1000 м 
[Cu hum]
+26.7 +10.8 37 +30  1011.4  -0.7  721  263           
15 05.09.14 090 (В) 8-11  20000 м    4/4 1000 м 
[Cu hum]
+24.8 +9.9 39 +27  1011.6  0.1  721  264    +26.9       
18 05.09.14 100 (В) 6{12}  20000 м    3/0 средняя 
[Ac trans]
+20.8 +10.6 52 +24  1013.1  0.8  721  268           
21 05.09.14 070 (В) 20000 м    ясно 
+18 +10.1 60 +20  1012.8  -0.8  721  271           
00 06.09.14 080 (В) 8-11{12}  20000 м    ясно 
+16.4 +4 44 +16  1013  -0.2  721  273           
03 06.09.14 080 (В) 20000 м    ясно 
+14.2 +5.1 54 +13  1013.3  0.1  721  275  +14.1        сухая 
06 06.09.14 110 (В) 10-14{14}  20000 м    ясно 
+21.8 +7.9 41 +22  1012.3  0.5  721  268           
09 06.09.14 100 (В) 13-18{18}  20000 м    ясно 
+25.6 +6.8 30 +26  1011.3  -0.4  721  264           
12 06.09.14 100 (В) 12-17{20}  20000 м    3/3 1000 м 
[Cu hum]
+27.2 +8.1 30 +27  1009.6  -1.3  720  262           
15 06.09.14 100 (В) 11-14  20000 м    3/0 средняя 
[Ac trans]
+25.3 +7 31 +25  1008.9  -1  719  264    +27.6       
18 06.09.14 090 (В) 9-12{14}  20000 м    ясно 
+21.6 +10.2 48 +24  1009.7  0.2  719  267           
21 06.09.14 100 (В) 8-10{12}  20000 м    ясно 
+18.4 +12.2 67 +23  1010.2  719  269           
00 07.09.14 100 (В) 7-10{12}  20000 м    10/6 500 м средняя 
[Sc|Ac und]
+18.3 +14.6 79 +27  1010.1  719  268           
03 07.09.14 100 (В) 20000 м    10/8 300 м средняя 
[Sc|Ac und]
+17.8 +14.7 82 +27  1010.8  0.5  719  269  +17.3        сухая 
06 07.09.14 110 (В) 9-11{12}  20000 м    10/10 600 м 
[Sc]
+19.6 +14.7 73 +28  1010.7  0.3  720  267           
09 07.09.14 100 (В) 11-15{15}  20000 м    4/4 600 м 
[Sc]
+24.4 +13.5 51 +32  1009.6  -0.3  719  263           
12 07.09.14 100 (В) 9-12{17}  20000 м    4/3 1000 м верхняя 
[Sc|Ci]
+26.6 +12.5 42 +32  1008.8  -0.3  719  262           
15 07.09.14 100 (В) 6{12}  20000 м    10/3 1000 м средняя, верхняя 
[Sc|Ac As|Ci sp]
+25 +12 44 +30  1008.9  -0.2  719  263    +26.8       
18 07.09.14 110 (В) 8-11{11}  20000 м    10/4 1000 м кучево-дожд., средняя 
[Cb calv|Ac und]
+23 +12.9 53 +29  1008.9  -0.3  719  265           
21 07.09.14 100 (В) 6-10{13}  20000 м    10/3 1000 м кучево-дожд., средняя, верхняя 
[Cb cap|Ac trans|Ci sp]
+20.1 +14.5 70 +29  1009.9  0.4  719  267           
00 08.09.14 140 (ЮВ) 3{10}  20000 м  слаб. ливневой дождь  9/6 1000 м кучево-дожд., средняя 
[Cb cap|Ac trans]
+18.1 +14.5 79 +28  1011.1  0.8  720  269           
03 08.09.14 100 (В) 20000 м  {ливн. осадки}  8/3 1000 м кучево-дожд., средняя 
[Cb calv|Ac trans]
+17.2 +14.9 86 +27  1010.6  -0.6  719  269  +17.1         
06 08.09.14 120 (ЮВ) 20000 м  {ливн. осадки}  8/3 600 м кучево-дожд., средняя 
[Cb calv|Ac trans]
+21.2 +15.5 70 +32  1011  1.1  720  266           
09 08.09.14 090 (В) 20000 м    3/3 600 м 
[Sc diur, vesp]
+26 +14.2 48 +34  1009.9  -0.3  720  262           
12 08.09.14 050 (СВ) 20000 м    8/1 600 м верхняя 
[Sc diur, vesp|Ci fib]
+27.8 +12.9 40 +34  1008.7  -1  719  260           
15 08.09.14 050 (СВ) 20000 м    10/3 600 м кучево-дожд., средняя, верхняя 
[Cb calv|Ac trans|Cs]
+26 +11.3 40 +30  1008.7  -0.3  719  262    +28.4       
18 08.09.14 320 (СЗ) 10 км  слаб. ливневой дождь{гроза}  10/6 600 м кучево-дожд., средняя 
[Cb cap|Ac und]
+18.6 +17.4 93 +33  1011.9  1.9  720  268           
21 08.09.14 040 (СВ) 10 км  слаб. ливневой дождь  10/8 540 м кучево-дожд., средняя 
[Cb cap|Ac und]
+17.4 +16.5 94 +32  1011.9  -0.2  720  269           
00 09.09.14 120 (ЮВ) 10 км    10/8 540 м кучево-дожд., средняя 
[Cb cap|Ac und]
+17.1 +16.3 95 +30  1011.2  -0.7  720  269           
03 09.09.14 130 (ЮВ) 4000 м  дымка  10/10 100 м 
[St]
+17 +16.3 96 +30  1010.9  -0.3  719  269  +16.5       
06 09.09.14 220 (ЮЗ) 4000 м  дымка  9/6 120 м средняя 
[St|Ac trans]
+18.3 +17.1 93 +34  1010.8  0.2  719  268           
09 09.09.14 тихо ()   10 км  слаб. ливневой дождь  10/5 300 м кучево-дожд., средняя 
[Cb cap|Ac und]
+19.5 +17.3 87 +34  1010.8  0.2  720  267           
12 09.09.14 320 (СЗ) 20000 м  {ливн. осадки}  8/6 500 м кучево-дожд., средняя 
[Cb calv|Ac trans]
+22.2 +16.5 70 +35  1010.1  -0.2  719  264           
15 09.09.14 020 (С) 20000 м    8/6 450 м кучево-дожд., средняя 
[Cb calv|Ac trans]
+20.2 +17.5 84 +35  1010.9  0.4  720  266    +23     
18 09.09.14 220 (ЮЗ) 10 км    6/0 средняя 
[Ac trans]
+17.1 +16.1 94 +30  1012.2  0.7  720  270           
21 09.09.14 300 (СЗ) 20000 м    4/0 средняя 
[Ac trans]
+18.1 +16.3 89 +31  1012.1  0.1  720  269           
00 10.09.14 250 (З) 2000 м  дымка  8/0 средняя 
[Ac trans]
+17.3 +16.4 94 +30  1012.4  0.1  720  269           
03 10.09.14 320 (СЗ) 4000 м  дымка{ливн. осадки}  8/4 600 м кучево-дожд., средняя 
[Cb calv|Ac trans]
+17.8 +16.7 93 +32  1012.6  0.3  721  269  +16.5    0.5     
06 10.09.14 350 (С) 10 км  {ливн. осадки}  9/6 180 м кучево-дожд., средняя 
[Cb calv|Ac trans]
+19.7 +16.2 80 +33  1013  0.7  721  267           
09 10.09.14 280 (З) 20000 м    9/6 600 м кучево-дожд., средняя 
[Cb calv|Ac trans]
+23.3 +15.5 62 +34  1012.9  0.5  722  265           
12 10.09.14 010 (С) 20000 м    8/5 600 м кучево-дожд., средняя, верхняя 
[Cb calv|Ac trans|Ci fib]
+24.3 +15.6 58 +35  1012.4  -0.3  721  264           
15 10.09.14 020 (С) 20000 м    8/4 600 м кучево-дожд., средняя 
[Cb calv|Ac trans]
+21.8 +15 65 +32  1013.3  0.4  722  266    +24.6       
18 10.09.14 080 (В) 20000 м  слаб. ливневой дождь  10/6 700 м кучево-дожд., средняя 
[Cb cap|Ac und]
+19.6 +14.9 74 +30  1014.6  0.9  722  268           
21 10.09.14 070 (В) 20000 м    8/4 1000 м кучево-дожд., средняя 
[Cb calv|Ac trans]
+17.6 +12.2 71 +23  1014.5  -0.5  722  271           
00 11.09.14 100 (В) 20000 м  {ливн. осадки}  8/1 1000 м кучево-дожд., верхняя 
[Cb calv|Ci fib]
+15 +10 72 +17  1014.9  -0.2  722  274           
03 11.09.14 080 (В) 20000 м    8/3 1000 м верхняя 
[Sc|Ci fib]
+13.7 +9.5 76 +15  1015.5  -0.2  722  275  +13.7        влажная 
06 11.09.14 110 (В) 20000 м    10/3 1000 м средняя 
[Sc|Ac und]
+17.1 +10.7 66 +21  1015.7  0.7  723  272  +13.6         
09 11.09.14 090 (В) 20000 м    10/4 1000 м средняя 
[Sc|Ac und]
+19 +13 68 +25  1015.9  0.6  723  270           
12 11.09.14 080 (В) 10 км  слаб. ливневой дождь  10/8 930 м кучево-дожд., средняя 
[Cb cap|Ac und]
+16 +13.7 86 +24  1017.5  724  273           
15 11.09.14 170 (Ю) 4000 м  слаб. ливневой дождь  10/8 300 м кучево-дожд., средняя 
[Cb cap|Ac und]
+15 +14 94 +23  1017.5  -0.2  724  274    +19.3     
18 11.09.14 тихо ()   10 км  слаб. ливневой дождь  10/6 1080 м кучево-дожд., средняя 
[Cb cap|Ac und]
+14.1 +13 93 +20  1018.1  0.5  724  275           
21 11.09.14 110 (В) 20000 м  {ливн. осадки}  10/8 1000 м кучево-дожд., средняя 
[Cb calv|Ac und]
+14.3 +13.3 94 +22  1017.6  -0.4  724  274           
00 12.09.14 тихо ()   20000 м  {ливн. осадки}  10/4 1000 м кучево-дожд., средняя 
[Cb cap|Ac und]
+14.6 +13.3 92 +21  1016.9  -0.7  723  274           
03 12.09.14 тихо ()   20000 м    10/6 1200 м средняя 
[Sc|Ac und]
+15.1 +13.3 89 +22  1017  0.2  723  273  +13.9    11    влажная 
06 12.09.14 170 (Ю) 20000 м    3/0 средняя 
[Ac trans]
+19.5 +13 66 +27  1016.2  723  269           
09 12.09.14 360 (С) 20000 м    8/8 720 м 
[Cu med, cong]
+21.4 +12.3 56 +27  1015.5  723  268           
12 12.09.14 330 (СЗ) 20000 м    6/6 900 м 
[Cu med, cong]
+24.2 +12 46 +29  1014.5  -0.5  723  265           
15 12.09.14 350 (С) 20000 м    4/0 средняя 
[Ac trans]
+21.6 +11.7 53 +26  1015.6  0.6  723  268    +24.4       
18 12.09.14 330 (СЗ) 20000 м    6/0 средняя 
[Ac As]
+18.7 +11.3 62 +24  1016.7  0.5  724  271           
21 12.09.14 340 (С) 20000 м    6/0 средняя 
[Ac trans]
+16.7 +11.4 71 +22  1016.9  0.1  724  273           
00 13.09.14 240 (ЮЗ) 20000 м    ясно 
+13.1 +10.8 86 +17  1017.5  0.1  723  276           
03 13.09.14 290 (З) 20000 м    3/0 средняя 
[Ac trans]
+13.2 +11.1 87 +17  1017.8  0.3  724  276  +12.5        влажная 
06 13.09.14 310 (СЗ) 20000 м    4/0 средняя 
[Ac trans]
+17.9 +13.8 77 +26  1017.3  0.4  724  271           
09 13.09.14 320 (СЗ) 20000 м    5/5 600 м 
[Cu hum]
+20.9 +12.7 59 +27  1016.5  0.4  724  268           
12 13.09.14 320 (СЗ) 20000 м    5/5 600 м 
[Cu hum]
+19.8 +12.7 64 +26  1016.6  0.4  724  269           
15 13.09.14 340 (С) 20000 м    8/8 420 м 
[St]
+15.5 +11.8 79 +20  1018  0.6  724  274    +21.6       
18 13.09.14 350 (С) 10 км    8/8 400 м 
[St]
+14.4 +10.8 79 +18  1018.6  0.4  724  275           
21 13.09.14 360 (С) 20000 м    10/8 450 м средняя 
[Sc|Ac und]
+14 +11.2 83 +19  1018  -0.6  724  275           
00 14.09.14 010 (С) 10 км    10/8 400 м средняя 
[Sc|Ac und]
+13.4 +11.3 87 +18  1017.4  -0.6  723  276           
03 14.09.14 060 (СВ) 10 км    10/8 200 м средняя 
[St|Ac und]
+13.4 +11 85 +18  1017.3  0.1  723  276  +13.3        сухая 
06 14.09.14 020 (С) 10 км    10/6 800 м средняя 
[Sc|Ac und]
+14.6 +11.2 80 +19  1017.1  723  275  +13.3         
09 14.09.14 050 (СВ) 20000 м    10/6 960 м средняя 
[Sc|Ac und]
+18.9 +11.8 63 +24  1015.9  -0.4  723  270           
12 14.09.14 080 (В) 20000 м    9/5 1000 м средняя 
[Sc|Ac trans]
+20.7 +12.4 59 +26  1015.1  -0.5  723  268           
15 14.09.14 090 (В) 20000 м    3/3 1000 м 
[Sc]
+19.9 +12.8 64 +27  1014.8  -0.3  722  269    +21.7       
18 14.09.14 050 (СВ) 20000 м    1/0 средняя 
[Ac trans]
+17 +12.6 75 +24  1015.2  0.1  722  272           
21 14.09.14 080 (В) 20000 м    1/0 средняя 
[Ac trans]
+15.2 +12.2 82 +20  1014.7  -0.8  722  273           
00 15.09.14 080 (В) 20000 м    3/0 средняя 
[Ac trans]
+13.8 +11.2 84 +18  1014.6  -0.4  722  275           
03 15.09.14 100 (В) 20000 м    3/0 средняя 
[Ac trans]
+12.4 +10.5 88 +15  1015  0.1  722  276  +12.1        сухая 
06 15.09.14 120 (ЮВ) 20000 м    1/0 средняя 
[Ac trans]
+18.8 +10.5 58 +22  1014.1  0.3  722  270           
09 15.09.14 100 (В) 6{11}  20000 м    ясно 
+23.9 +6.1 32 +24  1012.7  -0.6  721  266           
12 15.09.14 110 (В) 5{11}  20000 м    3/0 средняя 
[Ac As]
+25.1 +6.2 30 +25  1011.6  -0.8  721  265           
15 15.09.14 090 (В) 20000 м    4/0 средняя 
[Ac As]
+21.7 +6.4 37 +22  1011.8  -0.3  721  268    +25.2       
18 15.09.14 100 (В) 20000 м    3/0 средняя 
[Ac trans]
+16.6 +5.5 48 +17  1013  0.2  721  273           
21 15.09.14 130 (ЮВ) 20000 м    3/0 средняя 
[Ac trans]
+16.9 +5.3 46 +18  1012.4  -0.6  720  272           
00 16.09.14 120 (ЮВ) 20000 м    8/3 1000 м средняя 
[Sc|Ac trans]
+16.3 +4.8 46 +18  1011.5  -0.9  720  273           
03 16.09.14 150 (ЮВ) 20000 м  слаб. ливневой дождь  10/6 1000 м кучево-дожд., средняя 
[Cb cap|Ac und]
+14.4 +10.5 77 +17  1011.9  0.1  720  273  +14.4         
06 16.09.14 090 (В) 20000 м  {ливн. осадки}  9/3 600 м кучево-дожд., средняя 
[Cb calv|Ac As]
+17 +12.9 77 +23  1011.9  0.5  720  271  +14.4         
09 16.09.14 090 (В) 4000 м  гроза, ливневой дождь  10/8 420 м кучево-дожд., средняя 
[Cb cap|Ac und]
+14.3 +11.8 85 +19  1012.1  0.5  720  273           
12 16.09.14 120 (ЮВ) 4{11}  20000 м  в посл. час ливневой дождь{гроза}  8/3 600 м кучево-дожд., средняя 
[Cb calv|Ac trans]
+15.9 +12.6 81 +22  1012  0.2  720  272           
15 16.09.14 350 (С) 20000 м    8/4 600 м кучево-дожд., средняя 
[Cb calv|Ac As]
+15.6 +11.2 75 +20  1013.5  1.3  721  273    +17.6     
18 16.09.14 160 (Ю) 20000 м  в посл. час ливневой дождь{гроза}  10/4 600 м кучево-дожд., средняя 
[Cb calv|Ac und]
+13.4 +12 91 +20  1014.7  0.7  722  275           
21 16.09.14 240 (ЮЗ) 20000 м  {ливн. осадки}  3/1 1000 м кучево-дожд., средняя 
[Cb calv|Ac trans]
+11 +9.7 92 +13  1015.7  0.5  722  278           
00 17.09.14 330 (СЗ) 20000 м  {ливн. осадки}  5/0 средняя 
[Ac trans]
+11.8 +10.3 91 +14  1015.4  -0.1  722  277           
03 17.09.14 340 (С) 20000 м    1/0 средняя 
[Ac trans]
+11.5 +9.1 85 +13  1016.3  0.7  722  278  +10.4      влажная 
06 17.09.14 090 (В) 20000 м    ясно 
+16.4 +9.7 65 +18  1016.3  0.9  723  273           
09 17.09.14 060 (СВ) 20000 м    3/3 600 м 
[Cu hum]
+20.4 +9.5 50 +22  1015.9  0.3  723  269           
12 17.09.14 060 (СВ) 7-10{10}  20000 м    4/4 600 м 
[Cu med, cong]
+21.5 +7.4 40 +22  1015.7  723  269           
15 17.09.14 070 (В) 8-12  20000 м    3/1 1000 м верхняя 
[Sc diur, vesp|Ci fib]
+17 +4.6 44 +16  1017.3  0.7  724  274    +21.7       
18 17.09.14 070 (В) 7{12}  20000 м    3/0 верхняя 
[Ci fib]
+11.7 +2.3 52 +10  1020.4  725  280           
21 17.09.14 080 (В) 20000 м    3/0 верхняя 
[Ci fib]
+10.1 +0.3 51 +9  1021.2  0.4  726  282           
00 18.09.14 080 (В) 6{11}  20000 м    4/0 средняя, верхняя 
[Ac trans|Ci fib]
+7.9 -2.7 47 +6  1021.2  -0.4  725  284           
03 18.09.14 090 (В) 20000 м    9/4 600 м средняя 
[Sc|Ac trans]
+8 -4.3 41 +5  1021.1  0.1  725  284  +7.5        сухая 
06 18.09.14 090 (В) 8-12{12}  20000 м    10/6 600 м средняя 
[Sc|Ac und]
+10.1 -4 37 +8  1021.3  0.6  726  282           
09 18.09.14 100 (В) 12-17{17}  20000 м    9/5 1000 м средняя 
[Sc|Ac trans]
+15.7 +3.7 45 +14  1019.8  -0.3  725  276           
12 18.09.14 090 (В) 11-15{17}  20000 м    10/6 1000 м средняя 
[Sc|Ac und]
+15.8 +2.3 40 +15  1019.4  -0.4  725  276           
15 18.09.14 100 (В) 9-13  20000 м    10/6 1000 м кучево-дожд., средняя 
[Cb calv|Ac und]
+14.8 +3.5 47 +14  1020  0.4  725  277    +15.9       
18 18.09.14 100 (В) 10-13  20000 м  слаб. ливневой дождь  10/6 1000 м кучево-дожд., средняя 
[Cb cap|Ac und]
+12 +7.2 72 +10  1021.6  1.1  726  279           
21 18.09.14 090 (В) 9-12{15}  20000 м  слаб. ливневой дождь  10/6 210 м кучево-дожд., средняя 
[Cb calv|Ac und]
+10 +9.1 94 +9  1022.1  0.1  726  281           
00 19.09.14 090 (В) 11-15  4000 м  ливневой дождь  10/8 100 м кучево-дожд., средняя 
[Cb cap|Ac und]
+9 +8.3 95 +6  1021.9  -0.3  726  282           
03 19.09.14 090 (В) 10  2500 м  ливневой дождь  10/8 50 м кучево-дожд., средняя 
[Cb cap|Ac und]
+8.9 +8.3 96 +6  1022  0.1  726  282  +8.9       
06 19.09.14 090 (В) 10  4000 м  ливневой дождь  10/8 100 м кучево-дожд., средняя 
[Cb cap|Ac und]
+9.2 +8.5 95 +7  1022.6  0.6  727  282  +8.8         
09 19.09.14 100 (В) 8-12  10 км  слаб. ливневой дождь  10/8 180 м кучево-дожд., средняя 
[Cb cap|Ac und]
+10.5 +9.7 95 +10  1022.4  727  280           
12 19.09.14 090 (В) 8-10  10 км  слаб. ливневой дождь  10/8 120 м кучево-дожд., средняя 
[Cb cap|Ac und]
+10.4 +9.5 94 +9  1022.5  0.1  727  280           
15 19.09.14 090 (В) 4000 м  ливневой дождь  10/8 100 м кучево-дожд., средняя 
[Cb cap|Ac und]
+9.9 +9.2 95 +9  1022.4  -0.2  726  281    +10.5     
18 19.09.14 100 (В) 8-10  10 км  {ливн. осадки}  10/10 120 м 
[St]
+10 +9.1 94 +9  1022.5  0.2  727  281           
21 19.09.14 080 (В) 6{12}  4000 м  дымка{ливн. осадки}  10/8 180 м кучево-дожд., средняя 
[Cb calv|Ac und]
+8.4 +7.5 94 +7  1021.5  -1.3  726  282           
00 20.09.14 090 (В) 7{11}  4000 м  дымка{ливн. осадки}  10/10 150 м 
[St]
+8 +7.1 94 +6  1020.2  -1.3  725  282           
03 20.09.14 090 (В) 1500 м  дымка  10/10 50 м 
[St]
+8.3 +7.6 95 +6  1019.8  -0.3  724  282  +7.9       
06 20.09.14 070 (В) 5{11}  0400 м  туман  ?/?  
+8.7 +8.1 96 +7  1019.8  0.1  725  281           
09 20.09.14 060 (СВ) 0200 м  туман  ?/?  
+9.2 +8.6 96 +7  1018.9  -0.8  724  281           
12 20.09.14 060 (СВ) 4000 м  дымка{туман}  10/10 60 м 
[St]
+9.7 +9.1 96 +9  1018.3  -0.4  724  280           
15 20.09.14 060 (СВ) 1000 м  дымка  10/10 50 м 
[St]
+9.7 +9 95 +9  1018.8  0.5  724  280    +9.8       
18 20.09.14 070 (В) 2000 м  дымка{морось, туман}  10/10 100 м 
[St]
+8.7 +8 95 +7  1019.6  0.5  724  281           
21 20.09.14 090 (В) 1400 м  слаб. морось{туман}  10/10 60 м 
[St]
+8.4 +7.8 96 +7  1018.7  -0.9  724  281           
00 21.09.14 070 (В) 0200 м  слаб. морось{туман}  ?/?  
+8.2 +7.6 96 +7  1018.3  -0.4  723  282           
03 21.09.14 070 (В) 0200 м  слаб. морось{туман}  ?/?  
+8.2 +7.6 96 +7  1018.4  -0.1  723  282  +8.2    0.5    влажная 
06 21.09.14 090 (В) 0900 м  слаб. морось{туман}  ?/?  
+8.7 +8.1 96 +7  1018.4  0.1  723  281  +8.2         
09 21.09.14 100 (В) 4000 м  дымка{морось, туман}  10/10 120 м 
[St]
+9.6 +9.1 97 +9  1017.3  -0.8  723  280           
12 21.09.14 080 (В) 10 км  {дождь, морось}  10/10 330 м 
[St]
+11.1 +8.8 86 +10  1016.8  -0.2  723  278           
15 21.09.14 070 (В) 1500 м  дымка  10/10 50 м 
[St]
+10.3 +9.5 95 +10  1016.7  -0.2  722  279    +11.5  0.3     
18 21.09.14 080 (В) 0300 м  туман  ?/?  
+11 +10.3 95 +12  1016.3  -0.2  722  278           
21 21.09.14 110 (В) 0400 м  туман  ?/?  
+11.7 +11.1 96 +14  1015.3  -0.8  722  277           
00 22.09.14 100 (В) 1200 м  слаб. дождь{туман}  10/10 210 м 
[Ns]
+11.2 +10.6 96 +14  1015.1  -0.3  722  277           
03 22.09.14 090 (В) 2200 м  дымка{дождь}  10/10 100 м 
[St]
+11.3 +10.7 96 +13  1015.3  0.2  722  277  +10.3    0.3     
06 22.09.14 100 (В) 0900 м  туман{дождь}  ?/?  
+10.6 +10 96 +11  1015.9  0.4  722  278           
09 22.09.14 110 (В) 20000 м  {туман}  10/8 330 м средняя 
[St|Ac und]
+12.9 +10.3 84 +14  1015  -0.5  722  276           
12 22.09.14 130 (ЮВ) 20000 м  {туман}  8/4 600 м средняя 
[Sc|Ac trans]
+15.9 +10.3 69 +18  1013.9  -0.5  721  273           
15 22.09.14 110 (В) 20000 м    9/8 900 м средняя 
[Sc|Ac trans]
+13.4 +10 80 +15  1014.5  -0.5  721  275    +16.2       
18 22.09.14 120 (ЮВ) 20000 м    6/3 1000 м средняя 
[Sc|Ac trans]
+10.5 +9.4 93 +11  1015  0.1  721  278           
21 22.09.14 120 (ЮВ) 10 км    3/1 1000 м средняя 
[Sc|Ac trans]
+9.6 +8.6 93 +9  1014.3  -0.8  721  279           
00 23.09.14 160 (Ю) 20000 м    3/0 средняя 
[Ac trans]
+8.4 +7.4 93 +8  1013.1  -1.3  720  280           
03 23.09.14 140 (ЮВ) 10 км    4/4 600 м 
[Sc]
+8.4 +7.5 94 +7  1012.9  -0.2  719  280  +7.9        влажная 
06 23.09.14 130 (ЮВ) 20000 м    3/3 300 м 
[St]
+13.8 +11.7 87 +17  1011.3  -0.5  719  274           
09 23.09.14 130 (ЮВ) 7-10{10}  20000 м    3/0 средняя 
[Ac trans]
+19.9 +10.4 54 +23  1008.8  -1.3  718  268           
12 23.09.14 120 (ЮВ) 6{11}  20000 м    4/0 верхняя 
[Ci sp]
+20.9 +10.5 51 +24  1007.2  -1.4  717  266           
15 23.09.14 130 (ЮВ) 6{11}  20000 м    6/0 средняя, верхняя 
[Ac trans|Ci sp]
+17.5 +10.9 65 +20  1006.4  -1.4  716  269    +21.8       
18 23.09.14 120 (ЮВ) 20000 м    6/0 средняя 
[Ac trans]
+15 +9.1 68 +16  1005.2  -1.4  715  271           
21 23.09.14 120 (ЮВ) 8-10{16}  20000 м    10/3 1000 м кучево-дожд., средняя 
[Cb cap|Ac und]
+15.2 +8.7 65 +14  1001.4  -3.5  712  270           
00 24.09.14 130 (ЮВ) 3{13}  20000 м  слаб. ливневой дождь  10/8 1000 м кучево-дожд., средняя 
[Cb cap|Ac und]
+13.2 +11 86 +17  1000.6  -1  711  271           
03 24.09.14 140 (ЮВ) 10 км  слаб. ливневой дождь  10/8 600 м кучево-дожд., средняя 
[Cb cap|Ac und]
+13.4 +12.5 94 +19  1001.3  0.7  712  271  +12.7       
06 24.09.14 250 (З) 8-14{14}  20000 м  {ливн. осадки}  9/4 600 м кучево-дожд., средняя 
[Cb calv|Ac und]
+14.8 +10 73 +16  1003.6  2.4  714  271           
09 24.09.14 260 (З) 13-19{20}  20000 м    8/3 600 м кучево-дожд., средняя 
[Cb calv|Ac trans]
+17.4 +7.1 51 +16  1004.8  1.6  715  270           
12 24.09.14 250 (З) 14-21{22}  20000 м    3/3 1000 м 
[Cu hum]
+18.2 +1.6 33 +17  1006.2  1.4  716  270           
15 24.09.14 250 (З) 10-16  20000 м    3/3 1000 м 
[Sc diur, vesp]
+14 +4.2 52 +12  1008.8  1.8  717  274    +19  0.3     
18 24.09.14 260 (З) 6{16}  20000 м    ясно 
+10.2 +6.1 76 +9  1010.5  0.9  718  278           
21 24.09.14 270 (З) 7-11{18}  20000 м    6/3 300 м средняя 
[Frnb|Ac trans]
+8.7 +5.9 83 +7  1011.2  0.4  718  279           
00 25.09.14 260 (З) 9-12{17}  20000 м    1/0 средняя 
[Ac trans]
+8.1 +4.4 77 +5  1010.9  -0.4  718  280           
03 25.09.14 260 (З) 10 км  слаб. ливневой дождь  10/6 600 м кучево-дожд., средняя 
[Cb calv|Ac und]
+8.4 +6.2 86 +6  1010.5  -0.3  718  279  +8         
06 25.09.14 270 (З) 10  20000 м  {ливн. осадки}  10/6 540 м кучево-дожд., средняя 
[Cb calv|Ac und]
+8.5 +4.7 77 +6  1010.8  0.3  718  280  +7.7         
09 25.09.14 260 (З) 5{17}  10 км  слаб. ливневой дождь  10/8 480 м кучево-дожд., средняя 
[Cb calv|Ac und]
+7.7 +6.3 91 +6  1012  719  281           
12 25.09.14 280 (З) 11-16  20000 м  {ливн. осадки}  10/6 500 м кучево-дожд., средняя 
[Cb calv|Ac und]
+7.8 +4.4 79 +5  1012.6  719  281           
15 25.09.14 280 (З) 7-11  20000 м    10/4 300 м кучево-дожд., средняя 
[Cb calv|Ac und]
+7.9 +5 82 +6  1014  720  281    +8.7     
18 25.09.14 270 (З) 8-11{14}  20000 м  {ливн. осадки}  10/4 1000 м кучево-дожд., средняя 
[Cb calv|Ac und]
+8 +5.6 85 +5  1015.2  1.1  721  281           
21 25.09.14 280 (З) 7-12{13}  10 км  слаб. ливневой дождь  10/6 420 м кучево-дожд., средняя 
[Cb calv|Ac und]
+8.1 +6.6 90 +6  1015.4  0.2  721  281           
00 26.09.14 280 (З) 5{14}  20000 м  слаб. ливневой дождь  10/6 270 м кучево-дожд., средняя 
[Cb cap|Ac und]
+8 +6.8 92 +6  1015.7  0.3  721  281           
03 26.09.14 280 (З) 4000 м  дымка{ливн. осадки}  10/8 100 м кучево-дожд., средняя 
[Cb calv|Ac und]
+8.3 +7.3 93 +8  1016.8  1.1  722  281  +7.6       
06 26.09.14 290 (З) 4000 м  слаб. ливневой дождь  10/8 180 м кучево-дожд., средняя 
[Cb cap|Ac und]
+9.1 +8.1 93 +8  1017.7  723  280           
09 26.09.14 290 (З) 20000 м  {ливн. осадки}  10/6 400 м кучево-дожд., средняя 
[Cb calv|Ac und]
+11.6 +8.1 79 +11  1017.3  0.1  723  278           
12 26.09.14 350 (С) 1000 м  {ливн. осадки}  10/6 1000 м кучево-дожд., средняя 
[Cb calv|Ac und]
+12.7 +7.9 73 +12  1017.2  0.1  723  277           
15 26.09.14 300 (СЗ) 20000 м    3/1 1000 м средняя 
[Sc|Ac trans]
+11.4 +6.7 73 +13  1018.2  0.7  724  279    +14.6     
18 26.09.14 010 (С) 20000 м    3/0 средняя 
[Ac trans]
+8.2 +6.4 88 +9  1019.2  0.3  724  282           
21 26.09.14 150 (ЮВ) 20000 м    6/3 1000 м средняя 
[Sc|Ac trans]
+9 +6.9 87 +10  1018.3  -0.7  723  281           
00 27.09.14 120 (ЮВ) 20000 м    3/0 средняя 
[Ac trans]
+6.7 +5.3 91 +7  1017.9  -0.9  723  283           
03 27.09.14 080 (В) 20000 м    8/3 1000 м верхняя 
[Sc|Ci fib]
+6.3 +5 91 +6  1017.4  -0.5  722  284  +5.4        влажная 
06 27.09.14 100 (В) 20000 м    8/0 верхняя 
[Ci fib]
+11.6 +6.6 71 +11  1016.9  0.5  723  278           
09 27.09.14 090 (В) 6-10{10}  20000 м    6/4 600 м верхняя 
[Cu hum|Ci fib]
+15.4 +4.5 48 +15  1015.4  -0.7  722  275           
12 27.09.14 110 (В) 4{10}  20000 м    8/3 600 м верхняя 
[Cu hum|Ci fib]
+16.5 +4.1 44 +17  1014.2  -0.9  722  273           
15 27.09.14 070 (В) 20000 м    10/0 средняя 
[Ac As]
+13 +5.9 62 +13  1015.2  0.3  722  277    +17.2       
18 27.09.14 100 (В) 20000 м    6/0 средняя 
[Ac As]
+9.8 +6.5 80 +9  1015.9  0.1  722  280           
21 27.09.14 110 (В) 20000 м    6/0 средняя 
[Ac trans]
+9.7 +6.6 81 +8  1014.3  -1.5  721  279           
00 28.09.14 090 (В) 20000 м    4/0 средняя 
[Ac trans]
+9.5 +7 84 +9  1013.5  -0.8  720  279           
03 28.09.14 110 (В) 20000 м    10/4 1000 м средняя 
[Sc|Ac und]
+9.3 +7 86 +9  1013.6  720  279  +8.6        влажная 
06 28.09.14 100 (В) 20000 м    10/5 1000 м средняя 
[Sc|Ac und]
+12.1 +9.9 86 +13  1013  720  276           
09 28.09.14 110 (В) 6{11}  20000 м    10/6 400 м средняя 
[St|Ac und]
+14.2 +10.6 79 +16  1012.6  720  274           
12 28.09.14 090 (В) 6{10}  20000 м    10/6 300 м средняя 
[St|Ac und]
+14 +11.3 84 +17  1012.5  720  274           
15 28.09.14 090 (В) 2000 м  слаб. ливневой дождь  10/8 50 м кучево-дожд., средняя 
[Cb calv|Ac und]
+12.5 +11.7 95 +16  1013.2  0.4  720  275    +14.5       
18 28.09.14 080 (В) 5{10}  4000 м  слаб. морось{ливн. осадки}  10/10 180 м 
[St]
+12.2 +11.2 94 +15  1014.2  0.9  721  276           
21 28.09.14 010 (С) 10 км  слаб. ливневой дождь{морось}  10/8 180 м кучево-дожд., средняя 
[Cb calv|Ac und]
+11.2 +10.5 95 +13  1014.1  -0.2  721  277           
00 29.09.14 010 (С) 20000 м  слаб. ливневой дождь{морось}  10/6 480 м кучево-дожд., средняя 
[Cb cap|Ac und]
+9.3 +7.5 89 +9  1017.1  2.4  723  280           
03 29.09.14 010 (С) 20000 м  {ливн. осадки}  9/3 600 м кучево-дожд., средняя 
[Cb calv|Ac As]
+8.9 +7.7 92 +10  1019.3  724  281  +8.6       
06 29.09.14 170 (Ю) 20000 м  {ливн. осадки}  10/6 240 м средняя 
[St|Ac und]
+10.3 +8.8 90 +11  1021.9  2.7  726  280           
09 29.09.14 110 (В) 20000 м    8/4 300 м средняя 
[Sc|Ac trans]
+12.9 +7.7 71 +13  1022.9  1.5  727  278           
12 29.09.14 130 (ЮВ) 20000 м    6/3 600 м средняя, верхняя 
[Sc|Ac trans|Ci fib]
+15.8 +5.8 51 +17  1022.7  0.2  727  276           
15 29.09.14 180 (Ю) 20000 м    3/0 средняя 
[Ac trans]
+13.2 +6.7 65 +14  1023.8  0.6  728  279    +17.1       
18 29.09.14 240 (ЮЗ) 20000 м    3/0 средняя 
[Ac trans]
+8.9 +6 82 +8  1025.1  0.5  728  283           
21 29.09.14 240 (ЮЗ) 20000 м    4/0 средняя 
[Ac trans]
+9.8 +4.8 71 +10  1024.6  -0.4  728  282           
00 30.09.14 290 (З) 20000 м    3/0 средняя 
[Ac trans]
+9.4 +5.7 78 +9  1023.8  -0.8  727  282           
03 30.09.14 240 (ЮЗ) 20000 м    ясно 
+8 +4.5 79 +9  1024.1  727  284  +6.8        влажная 
06 30.09.14 220 (ЮЗ) 20000 м    1/0 средняя 
[Ac trans]
+15.7 +6.3 54 +16  1022.6  727  276           
09 30.09.14 190 (Ю) 20000 м    6/3 600 м верхняя 
[Sc|Ci fib]
+19.2 +5 39 +20  1020.7  -1.2  726  273           
12 30.09.14 280 (З) 20000 м    8/1 600 м верхняя 
[Sc|Ci fib]
+19 +5.8 42 +20  1019.9  -0.8  726  272           
15 30.09.14 280 (З) 20000 м    3/0 верхняя 
[Ci fib]
+14.3 +5.9 57 +14  1020.8  0.1  726  277    +19.5       
18 30.09.14 250 (З) 20000 м    4/0 средняя 
[Ac trans]
+12 +5.3 64 +11  1021.5  0.2  726  279           
21 30.09.14 260 (З) 20000 м    4/0 средняя 
[Ac trans]
+10.3 +5.2 71 +9  1021  -0.8  725  281           
00 01.10.14 250 (З) 20000 м    5/0 средняя 
[Ac trans]
+11.3 +6.1 70 +11  1019.9  -0.8  725  279           
03 01.10.14 270 (З) 7-11{12}  20000 м    8/3 600 м средняя 
[Sc|Ac trans]
+11.6 +7.5 76 +10  1019  -0.8  724  279  +8.7        влажная 
Время (UTC), дата Ветер
(°,м/с) 
Видим.   Явления Облачность Т
(°С)
Тd
(°С)
f(%) Тe
(°С)
Pmin
(гПа)
dP
(гПа)
Po
(мм)
O2
(г/м3)
Тmin Tmax R s Состояние
почвы